Simultaneous Nadir Overpasses (SNOs) Predictions

Prediction of SNOs between LANDSAT-8 and METOP-A Satellite Orbit:

Table of predicted SNOs for the next 14.0 days since TLE Epoch: 7/6/2019
Index Date (LANDSAT-8) Time (LANDSAT-8) Lat,Lon (LANDSAT-8) SZA (LANDSAT-8 ) Date (METOP-A) Time (METOP-A) Lat,Lon (METOP-A) SZA (METOP-A ) Distance(km) Time Diff (sec)
1 07/06/2019 11:56:48 81.47, 47.18 61.42 07/06/2019 11:56:11 81.47, 47.20 61.41 0.68 37
2 07/06/2019 12:46:14 -81.48,-144.90 118.54 07/06/2019 12:46:50 -81.47,-144.88 118.52 0.87 36
3 07/09/2019 07:31:03 81.48, 113.94 61.76 07/09/2019 07:30:34 81.47, 113.85 61.73 1.79 29
4 07/09/2019 08:20:30 -81.48, -78.51 118.25 07/09/2019 08:21:14 -81.47, -78.59 118.24 1.54 44
5 07/12/2019 03:05:18 81.48,-179.71 62.10 07/12/2019 03:04:56 81.47,-179.51 62.10 3.29 22
6 07/12/2019 03:54:45 -81.47, -12.13 117.91 07/12/2019 03:55:37 -81.47, -12.33 117.91 3.15 52
7 07/14/2019 22:39:34 81.47,-113.38 62.48 07/14/2019 22:39:20 81.47,-113.30 62.48 1.44 14
8 07/14/2019 23:29:01 -81.47, 54.22 117.53 07/14/2019 23:30:00 -81.47, 54.33 117.49 1.84 59
9 07/17/2019 18:13:50 81.46, -47.08 62.91 07/17/2019 18:13:44 81.47, -47.10 62.91 0.78 6




NCC Satellite Simultaneous Nadir Overpasses (SNOs) Prediction Service
